FW2347 Weather Reports


Display with metric or nautical units.
time (UTC)temp
F
wind
direction
speed
MPH
gust
MPH
rain 1hr
in
rain 24hr
in
rain mn
in
humidity
%
barometer
mb
20260904034550 63 5 0.0 0.0 0.00 0.00 0.00 20 1019.2
20260904033025 63 5 0.0 0.0 0.00 0.00 0.00 23 1019.4
20260904031503 63 360 0.0 0.0 0.00 0.00 0.00 23 1019.4
20260904030046 64 5 0.0 0.0 0.00 0.00 0.00 22 1019.5
20260904024541 64 5 0.0 0.0 0.00 0.00 0.00 24 1019.5
20260904023019 64 360 0.0 0.0 0.00 0.00 0.00 26 1019.5
20260904021555 64 360 0.0 0.0 0.00 0.00 0.00 30 1019.5
20260904020030 65 360 0.0 0.0 0.00 0.00 0.00 30 1019.6
20260904014522 65 360 0.0 0.0 0.00 0.00 0.00 32 1019.6
20260904013126 65 0.0 0.0 0.00 0.00 0.00 36 1019.7
20260904011542 65 5 0.0 0.0 0.00 0.00 0.00 40 1019.8
20260904010032 65 5 0.0 0.0 0.00 0.00 0.00 43 1019.8
20260904004521 65 5 0.0 0.0 0.00 0.00 0.00 47 1020.0
20260904003101 66 0.0 0.0 0.00 0.00 0.00 47 1020.2
20260904001609 66 5 0.0 0.0 0.00 0.00 0.00 51 1020.3
20260904000046 66 360 0.0 0.0 0.00 0.00 0.00 54 1020.3
20260903234520 66 0.0 0.0 0.00 0.00 0.00 59 1020.3
20260903233102 66 5 0.0 0.0 0.00 0.00 0.00 61 1020.3
20260903231603 67 360 0.0 0.0 0.00 0.00 0.00 63 1020.3
20260903230036 67 360 0.0 0.0 0.00 0.00 0.00 66 1020.3
20260903224523 68 360 0.0 0.0 0.00 0.00 0.00 67 1020.2
20260903223103 68 5 0.0 0.0 0.00 0.00 0.00 69 1020.2
20260903221539 69 360 0.0 0.0 0.00 0.00 0.00 70 1020.1
20260903220014 69 5 0.0 0.0 0.00 0.00 0.00 70 1020.1
20260903214512 70 5 0.0 0.0 0.00 0.00 0.00 72 1020.2
20260903213004 70 360 0.0 0.0 0.00 0.00 0.00 72 1020.3
20260903211558 71 5 0.0 0.0 0.00 0.00 0.00 72 1020.2
20260903210052 72 5 0.0 0.0 0.00 0.00 0.00 72 1020.2
20260903204531 72 360 0.0 0.0 0.00 0.00 0.00 72 1020.2
20260903203022 73 5 0.0 0.0 0.00 0.00 0.00 71 1020.0
20260903201506 74 5 0.0 0.0 0.00 0.00 0.00 71 1020.0
20260903200058 75 5 0.0 0.0 0.00 0.00 0.00 70 1020.0
20260903194540 77 360 0.0 0.0 0.00 0.00 0.00 68 1019.7
20260903193037 78 5 0.0 0.0 0.00 0.00 0.00 67 1019.4
20260903191541 78 360 0.0 0.0 0.00 0.00 0.00 66 1019.1
20260903190036 79 5 0.0 0.0 0.00 0.00 0.00 65 1018.9
20260903184522 80 5 0.0 0.0 0.00 0.00 0.00 64 1018.7
20260903183009 81 5 0.0 0.0 0.00 0.00 0.00 63 1018.5
20260903181600 82 360 0.0 0.0 0.00 0.00 0.00 62 1018.4
20260903180111 83 360 0.0 0.0 0.00 0.00 0.00 60 1018.2
20260903174551 84 0.0 0.0 0.00 0.00 0.00 59 1018.1
20260903173045 85 5 0.0 0.0 0.00 0.00 0.00 57 1018.0
20260903171542 86 360 0.0 0.0 0.00 0.00 0.00 54 1017.9
20260903170016 87 5 0.0 0.0 0.00 0.00 0.00 52 1017.8
20260903164502 88 0.0 0.0 0.00 0.00 0.00 48 1017.8
20260903163133 89 360 0.0 0.0 0.00 0.00 0.00 45 1017.6
20260903161551 90 0.0 0.0 0.00 0.00 0.00 44 1017.6
20260903160036 90 5 0.0 0.0 0.00 0.00 0.00 43 1017.5
20260903154518 91 5 0.0 0.0 0.00 0.00 0.00 41 1017.6
20260903153014 91 5 0.0 0.0 0.00 0.00 0.00 40 1017.7
20260903151509 91 360 0.0 0.0 0.00 0.00 0.00 39 1017.6
20260903150013 93 360 0.0 0.0 0.00 0.00 0.00 38 1017.7
20260903144558 93 360 0.0 0.0 0.00 0.00 0.00 38 1017.7
20260903143046 94 5 0.0 0.0 0.00 0.00 0.00 36 1017.8
20260903141531 94 5 0.0 0.0 0.00 0.00 0.00 36 1017.7
20260903140024 94 0.0 0.0 0.00 0.00 0.00 36 1018.0
20260903134516 94 5 0.0 0.0 0.00 0.00 0.00 35 1017.9
20260903133004 94 5 0.0 0.0 0.00 0.00 0.00 37 1018.2
20260903131601 94 360 0.0 0.0 0.00 0.00 0.00 36 1018.2
20260903130039 93 5 0.0 0.0 0.00 0.00 0.00 37 1018.4
20260903124525 93 360 0.0 0.0 0.00 0.00 0.00 36 1018.6
20260903123013 92 360 0.0 0.0 0.00 0.00 0.00 38 1018.7
20260903121600 91 5 0.0 0.0 0.00 0.00 0.00 39 1018.8
20260903120116 90 0.0 0.0 0.00 0.00 0.00 40 1019.0
20260903114547 89 360 0.0 0.0 0.00 0.00 0.00 41 1019.3
20260903113024 89 360 0.0 0.0 0.00 0.00 0.00 41 1019.3
20260903111520 88 5 0.0 0.0 0.00 0.00 0.00 43 1019.5
20260903110008 88 5 0.0 0.0 0.00 0.00 0.00 42 1019.7
20260903104601 87 5 0.0 0.0 0.00 0.00 0.00 43 1020.1
20260903103050 86 360 0.0 0.0 0.00 0.00 0.00 44 1020.3
20260903101528 86 360 0.0 0.0 0.00 0.00 0.00 46 1020.4
20260903100016 85 5 0.0 0.0 0.00 0.00 0.00 49 1020.5
20260903094602 84 0.0 0.0 0.00 0.00 0.00 50 1020.6
20260903093039 83 5 0.0 0.0 0.00 0.00 0.00 53 1020.7
20260903091517 81 0.0 0.0 0.00 0.00 0.00 56 1020.7
20260903090001 80 5 0.0 0.0 0.00 0.00 0.00 60 1020.7
20260903084545 80 5 0.0 0.0 0.00 0.00 0.00 62 1020.8
20260903083025 78 360 0.0 0.0 0.00 0.00 0.00 64 1020.7
20260903081511 76 5 0.0 0.0 0.00 0.00 0.00 68 1020.7
20260903080007 74 0.0 0.0 0.00 0.00 0.00 70 1020.8
20260903074610 72 360 0.0 0.0 0.00 0.00 0.00 71 1020.9
20260903073023 70 360 0.0 0.0 0.00 0.00 0.00 71 1020.9
20260903071504 69 0.0 0.0 0.00 0.00 0.00 67 1021.0
20260903070044 67 5 0.0 0.0 0.00 0.00 0.00 59 1021.1
20260903064513 65 360 0.0 0.0 0.00 0.00 0.00 43 1021.1
20260903063008 62 360 0.0 0.0 0.00 0.00 0.00 32 1021.0
20260903061502 59 360 0.0 0.0 0.00 0.00 0.00 32 1021.0
20260903060051 60 360 0.0 0.0 0.00 0.00 0.00 31 1021.0
20260903054538 59 5 0.0 0.0 0.00 0.00 0.00 34 1020.9
20260903053014 59 5 0.0 0.0 0.00 0.00 0.00 35 1020.7
20260903051515 59 5 0.0 0.0 0.00 0.00 0.00 35 1020.5
20260903050101 59 5 0.0 0.0 0.00 0.00 0.00 39 1020.4
20260903044600 59 5 0.0 0.0 0.00 0.00 0.00 40 1020.4
20260903043046 59 5 0.0 0.0 0.00 0.00 0.00 43 1020.2
20260903041557 60 360 0.0 0.0 0.00 0.00 0.00 43 1020.3
20260903040014 60 360 0.0 0.0 0.00 0.00 0.00 46 1020.3